Location: Unspecified
(50.7693°N, 0.0000°E)
Time: 18:01:22
(UTC+00:00)

A-11 Canister half - Pass Details

Date: 22 June 2019
Orbit: 1526 x 1683 km, 47.3° (Epoch: 16 August)

Event Time Altitude Azimuth Distance (km) Brightness Sun altitude
Rises 08:56:52 0° 279° (W) 4,694 11.1 45.2°
Reaches altitude 10° 08:59:57 10° 276° (W) 3,702 10.7 45.6°
Maximum altitude 09:09:03 62° 199° (SSW) 1,696 10.0 47.0°
Drops below altitude 10° 09:18:11 10° 122° (ESE) 3,717 12.0 48.3°
Sets 09:21:18 0° 119° (ESE) 4,714 12.2 48.7°
